Regional Weather Roundup
Issued by NWS

Home | Current Version | Previous Version | Text Only | Print | Product List | Glossary Off
Versions: 1 2 3 4 5 6 7 8 9 10 11 12 13 14 15 16 17 18 19 20 21 22 23 24 25 26 27 28 29 30 31 32 33 34 35 36 37 38 39 40 41 42 43 44 45 46 47 48 49 50

000
ASUS43 KIND 250709
RWRIN

WEATHER ROUNDUP FOR INDIANA
NATIONAL WEATHER SERVICE INDIANAPOLIS IN
300 AM EDT WED APR 25 2018

NOTE: "FAIR" INDICATES FEW OR NO CLOUDS BELOW 12,000 FEET WITH NO
SIGNIFICANT WEATHER AND/OR OBSTRUCTIONS TO VISIBILITY.

* - STATION DOES NOT REPORT WEATHER SUCH AS PRECIPITATION OR FOG.

+ - STATION NOT QUALITY CONTROLLED BY THE NATIONAL WEATHER SERVICE.
    USE DATA WITH CAUTION...ESPECIALLY DEWPOINT AND RELATIVE
    HUMIDITY OBSERVATIONS.

INZ001>003-010>013-019-020-250800-
NORTHWEST INDIANA

CITY           SKY/WX    TMP DP  RH WIND       PRES   REMARKS
GARY /AIRPORT/ CLOUDY    43  38  83 NW17G24   30.04R
KNOX *+        MOCLDY    43  43 100 NW7       29.97S
LA PORTE +     CLOUDY    43  42  95 NW12      29.99S
MICHIGAN CITY+ CLOUDY    41  41 100 N3        30.01S
MONTICELLO +   FAIR      44  43  95 NW7       29.95F
RENSSELAER +   FAIR      45  41  87 NW8       29.98F FOG
VALPARAISO     FOG       44  42  93 NW10      30.00R VSB 1

$$

LMZ046-743>745-250800-
SOUTHERN LAKE MICHIGAN

STATION/POSITION TIME  TEMP    WIND        PRES    WAVE
                       AIR SEA DIR/SP/G            HT
                 (UTC) (F)     (DEG/KT/KT) (MB)    (FT)
BURNS HARBOR     0640   40     330/  7/  8 1016.9S
MICHIGAN CITY    0640   41     350/ 10/ 12   N/A

$$

INZ004-005-014>016-021>024-250800-
NORTH CENTRAL INDIANA

CITY           SKY/WX    TMP DP  RH WIND       PRES   REMARKS
GOSHEN         CLOUDY    53  51  93 N5        29.95F FOG
LOGANSPORT +   FAIR      50  46  87 NW3       29.95F
ROCHESTER +    CLOUDY    54  52  94 N5        29.95F FOG
SOUTH BEND     CLOUDY    51  48  89 NW8       29.98F
WARSAW +       CLOUDY    52  52 100 N3        29.94F FOG

$$

INZ006>009-017-018-025>027-250800-
NORTHEAST INDIANA

CITY           SKY/WX    TMP DP  RH WIND       PRES   REMARKS
ANGOLA *+      CLOUDY    50  50 100 N6        29.93  FOG
AUBURN +       CLOUDY    50  50 100 NW3       29.94F FOG
FORT WAYNE     CLOUDY    52  50  93 N8        29.94F
HUNTINGTON +   CLOUDY    50  49  96 N3        29.93F

$$

INZ028-029-035-036-043>045-051>053-250800-
WEST CENTRAL INDIANA

CITY           SKY/WX    TMP DP  RH WIND       PRES   REMARKS
CRAWFORDSVL +  FAIR      47  47 100 NW3       29.94F
GREENCASTLE +  FAIR      50  48  93 CALM      29.95F FOG
LAFAYETTE      FAIR      48  47  96 NW7       29.95F
TERRE HAUTE    FAIR      51  50  96 NW3       29.95F

$$

INZ030>032-037>040-046>048-054>057-064-065-250800-
CENTRAL INDIANA

CITY           SKY/WX    TMP DP  RH WIND       PRES   REMARKS
FISHERS *+     MOCLDY    50  50 100 CALM      29.93
FRANKFORT +    FAIR      52  50  92 N7        29.96F
GREENWOOD *+   CLOUDY    52  50  94 CALM      29.93F
INDIANAPOLIS   MOCLDY    52  50  93 N6        29.93F
-EAGLE CREEK   CLOUDY    53  49  86 N5        29.92F
KOKOMO +       CLOUDY    52  50  93 N6        29.94F
MARION +       MOCLDY    50  49  95 CALM      29.94F FOG
MT COMFORT *+  CLOUDY    52  52 100 N8        29.93F
SHELBYVILLE    CLOUDY    53  50  89 N9        29.92F
ZIONSVILLE +   MOCLDY    49  49  98 N6        29.94F

$$

INZ033-034-041-042-049-050-058-059-250800-
EAST CENTRAL INDIANA

CITY           SKY/WX    TMP DP  RH WIND       PRES   REMARKS
MUNCIE         CLOUDY    53  50  89 N8        29.92F
RICHMOND +     CLOUDY    50  50 100 N7        29.91F FOG

$$

INZ060-061-067>069-081>083-085>088-250800-
SOUTHWEST INDIANA

CITY           SKY/WX    TMP DP  RH WIND       PRES   REMARKS
EVANSVILLE     FAIR      53  53 100 W6        29.96F FOG
HUNTINGBURG +  FAIR      53  51  93 NW5       29.94F
WASHINGTON +   FAIR      51  49  93 NW6       29.94F

$$

INZ062-063-066-070>080-084-089>092-250800-
SOUTH CENTRAL AND SOUTHEAST INDIANA

CITY           SKY/WX    TMP DP  RH WIND       PRES   REMARKS
BATESVILLE +   CLOUDY    52  52 100 MISG      29.91F FOG
BLOOMINGTON    FAIR      52  50  93 CALM      29.93F FOG
FRENCH LICK *+ CLOUDY    52 N/A N/A CALM      29.94F
MADISON *+     CLOUDY    54  52  94 CALM      29.93F
NORTH VERNON + CLOUDY    52  50  93 NW6       29.92F
SEYMOUR +      CLOUDY    54  54 100 NW5       29.93F FOG

$$




USA.gov is the U.S. government's official web portal to all federal, state and local government web resources and services.